(214334) = 2005 JE84

Discovered at Kitt Peak on 2005-05-08 by Spacewatch.

Orbit

Orbit type: Main Belt

Note: WebGL enabled browser required.

epoch2023-09-13.0
epoch JD2460200.5
perihelion date2020-12-20.64123
perihelion JD2459204.14123
argument of perihelion (°)311.46986
ascending node (°)190.75766
inclination (°)1.50955
eccentricity0.1383892
perihelion distance (AU)2.2101316
Tisserand w.r.t. Jupiter3.4
ΔV w.r.t. Earth (km/sec)9.3
semimajor axis (AU)2.5651160
mean anomaly (°)239.03367
mean daily motion (°/day)0.23990720
aphelion distance (AU)2.920
period (years)4.11
P-vector [x]-0.79040077
P-vector [y]0.56960042
P-vector [z]0.22543733
Q-vector [x]-0.61257036
Q-vector [y]-0.73195528
Q-vector [z]-0.29832704
absolute magnitude16.97
phase slope0.15
uncertainty0
referenceMPEC 2024-A55
observations used416
oppositions13
arc length (days)7292
first opposition used2003
last opposition used2023
residual rms (arc-secs)0.76
perturbers coarse indicatorM-v
perturbers precise indicator003Ek
first observation date used2003-11-21.0
last observation date used2023-11-07.0
computer nameMPCLINUX
JD of orbit computation2456909.279868
perihelion JD uncertainty (days)1.0245E-04
argument of perihelion uncertainty (°)1.5808E-04
ascending node uncertainty (°)1.5622E-04
inclination uncertainty (°)5.6503E-06
eccentricity uncertainty 2.9177E-08
perihelion distance uncertainty (AU)7.1293E-08
Minimum Orbit Intersection Distances (in AU)
for orbit epoch: 2460200.5, reference: E2023-VJ5
Mercury1.85902
Venus1.49448
Earth1.22177
Mars0.5555
Jupiter2.09491
Saturn6.60792
Uranus16.198
Neptune27.0557

Observations

421 total observations over interval: 2003 11 21.33730 – 2023 11 07.94550
These data are available for download (format description).

Date (UT) J2000 RA J2000 Dec Magn Location Ref
2003 11 21.33730 04 56 15.38 +20 30 46.0 20.3   704 – Lincoln Laboratory ETS, New Mexico MPS 160462
2003 11 21.35019 04 56 14.75 +20 30 43.3 20.4   704 – Lincoln Laboratory ETS, New Mexico MPS 160462
2003 11 21.36311 04 56 13.93 +20 30 42.7 20.4   704 – Lincoln Laboratory ETS, New Mexico MPS 160462
2003 11 21.37594 04 56 13.28 +20 30 39.9 20.1   704 – Lincoln Laboratory ETS, New Mexico MPS 160462
2003 12 19.31212 04 28 30.02 +19 28 20.8 20.4 V 691 – Steward Observatory, Kitt Peak-Spacewatch MPS 160462
2003 12 19.33922 04 28 28.49 +19 28 17.6 20.6 V 691 – Steward Observatory, Kitt Peak-Spacewatch MPS 160462
2003 12 19.36709 04 28 26.91 +19 28 13.9 20.5 V 691 – Steward Observatory, Kitt Peak-Spacewatch MPS 160462
2005 03 10.48550 15 28 58.22 -18 09 38.2 20.9 R G96 – Mt. Lemmon Survey MPS 160462
2005 03 10.49291 15 28 58.45 -18 09 38.5 20.8 R G96 – Mt. Lemmon Survey MPS 160462
2005 03 10.50029 15 28 58.55 -18 09 38.8 21.1 R G96 – Mt. Lemmon Survey MPS 160462
2005 03 10.50770 15 28 58.69 -18 09 38.3 20.4 R G96 – Mt. Lemmon Survey MPS 160462
2005 05 08.24375 15 03 59.64 -15 44 03.6 20.0 V 691 – Steward Observatory, Kitt Peak-Spacewatch MPS 134139
2005 05 08.26131 15 03 58.63 -15 43 59.0 19.9 V 691 – Steward Observatory, Kitt Peak-Spacewatch MPS 134139
2005 05 08.27885 15 03 57.61 -15 43 54.2 20.0 V 691 – Steward Observatory, Kitt Peak-Spacewatch MPS 134139
2005 05 12.29225 15 00 14.50 -15 26 19.1 20.4 V 691 – Steward Observatory, Kitt Peak-Spacewatch MPS 134139
2005 05 12.31679 15 00 13.07 -15 26 12.7 20.1 V 691 – Steward Observatory, Kitt Peak-Spacewatch MPS 134139
2005 05 12.33512 15 00 12.04 -15 26 07.8 20.8 V 691 – Steward Observatory, Kitt Peak-Spacewatch MPS 134139
2005 06 13.21683 14 39 14.65 -13 47 56.5 20.8 V G96 – Mt. Lemmon Survey MPS 160462
2005 06 13.22359 14 39 14.54 -13 47 55.7 20.8 V G96 – Mt. Lemmon Survey MPS 160462
2005 06 13.23034 14 39 14.43 -13 47 55.1 20.9 V G96 – Mt. Lemmon Survey MPS 160462
2005 06 13.23710 14 39 14.29 -13 47 54.5 20.6 V G96 – Mt. Lemmon Survey MPS 160462
2007 10 17.42338 04 14 21.19 +19 46 55.9 19.9 V G96 – Mt. Lemmon Survey MPS 229013
2007 10 17.42992 04 14 21.04 +19 46 55.1 20.2 V G96 – Mt. Lemmon Survey MPS 229013
2007 10 17.43646 04 14 20.94 +19 46 54.5 20.5 V G96 – Mt. Lemmon Survey MPS 229013
2007 10 17.44308 04 14 20.83 +19 46 53.6 20.8 V G96 – Mt. Lemmon Survey MPS 229013
2007 10 31.30106 04 07 17.61 +19 16 07.0 19.8 V G96 – Mt. Lemmon Survey MPS 229013
2007 10 31.30444 04 07 17.43 +19 16 06.2 20.0 V G96 – Mt. Lemmon Survey MPS 229013
2007 10 31.30781 04 07 17.29 +19 16 05.9 19.9 V G96 – Mt. Lemmon Survey MPS 229013
2007 10 31.30951 04 07 17.16 +19 16 05.9   691 – Steward Observatory, Kitt Peak-Spacewatch MPS 229013
2007 10 31.31132 04 07 17.11 +19 16 05.3 19.7 V G96 – Mt. Lemmon Survey MPS 229013
2007 10 31.32715 04 07 16.40 +19 16 02.7   691 – Steward Observatory, Kitt Peak-Spacewatch MPS 229013
2007 10 31.34478 04 07 15.60 +19 16 00.2   691 – Steward Observatory, Kitt Peak-Spacewatch MPS 229013
2007 11 08.20865 04 01 03.68 +18 52 24.5   691 – Steward Observatory, Kitt Peak-Spacewatch MPS 229013
2007 11 08.22632 04 01 02.75 +18 52 21.1   691 – Steward Observatory, Kitt Peak-Spacewatch MPS 229013
2007 11 08.24399 04 01 01.78 +18 52 17.8   691 – Steward Observatory, Kitt Peak-Spacewatch MPS 229013
2007 11 14.27007 03 55 29.46 +18 31 51.9 20.4   704 – Lincoln Laboratory ETS, New Mexico MPS 229013
2007 11 14.28256 03 55 28.84 +18 31 50.8 20.2   704 – Lincoln Laboratory ETS, New Mexico MPS 229013
2007 11 14.29507 03 55 28.13 +18 31 48.6 20.3   704 – Lincoln Laboratory ETS, New Mexico MPS 229013
2007 11 14.73238 03 55 02.65 +18 30 15.7 19.8 R 300 – Bisei Spaceguard Center-BATTeRS MPS 228292
2007 11 14.73538 03 55 02.45 +18 30 14.5 19.6 R 300 – Bisei Spaceguard Center-BATTeRS MPS 228292
2007 11 14.73840 03 55 02.24 +18 30 15.1 19.8 R 300 – Bisei Spaceguard Center-BATTeRS MPS 228292
2007 11 14.74140 03 55 02.02 +18 30 13.7 19.8 R 300 – Bisei Spaceguard Center-BATTeRS MPS 228292
2007 11 14.74441 03 55 01.93 +18 30 12.6 19.9 R 300 – Bisei Spaceguard Center-BATTeRS MPS 228292
2007 11 14.74742 03 55 01.71 +18 30 12.1 20.4 R 300 – Bisei Spaceguard Center-BATTeRS MPS 228292
2007 11 14.75044 03 55 01.53 +18 30 11.2 20.1 R 300 – Bisei Spaceguard Center-BATTeRS MPS 228292
2007 11 17.60991 03 52 14.09 +18 19 58.6 20.4 R 300 – Bisei Spaceguard Center-BATTeRS MPS 228292
2007 11 17.61294 03 52 14.00 +18 19 57.9 21.9 R 300 – Bisei Spaceguard Center-BATTeRS MPS 228292
2007 11 17.62567 03 52 13.15 +18 19 55.2 20.4 R 300 – Bisei Spaceguard Center-BATTeRS MPS 228292
2007 11 17.63169 03 52 12.83 +18 19 53.9 20.9 R 300 – Bisei Spaceguard Center-BATTeRS MPS 228292
2007 11 19.18657 03 50 40.31 +18 14 16.0   691 – Steward Observatory, Kitt Peak-Spacewatch MPS 228292
2007 11 19.20418 03 50 39.23 +18 14 12.2   691 – Steward Observatory, Kitt Peak-Spacewatch MPS 228292
2007 11 19.22179 03 50 38.17 +18 14 08.2   691 – Steward Observatory, Kitt Peak-Spacewatch MPS 228292
2007 12 03.26641 03 36 47.08 +17 23 33.1 21.2 V 703 – Catalina Sky Survey MPS 229824
2007 12 03.27496 03 36 46.58 +17 23 30.7 20.0 V 703 – Catalina Sky Survey MPS 229824
2007 12 03.28353 03 36 46.15 +17 23 29.7 20.4 V 703 – Catalina Sky Survey MPS 229824
2007 12 03.29211 03 36 45.54 +17 23 27.0 20.2 V 703 – Catalina Sky Survey MPS 229824
2007 12 04.26378 03 35 51.75 +17 20 11.4 20.1 V G96 – Mt. Lemmon Survey MPS 229824
2007 12 04.27733 03 35 51.00 +17 20 08.6 20.1 V G96 – Mt. Lemmon Survey MPS 229824
2007 12 04.28402 03 35 50.60 +17 20 07.0 20.1 V G96 – Mt. Lemmon Survey MPS 229824
2008 02 10.16602 03 35 26.84 +17 38 02.5 21.9 V G96 – Mt. Lemmon Survey MPS 237546
2008 02 10.17269 03 35 27.24 +17 38 03.4 21.9 V G96 – Mt. Lemmon Survey MPS 237546
2008 02 10.17926 03 35 27.56 +17 38 04.7 22.1 V G96 – Mt. Lemmon Survey MPS 237546
2008 02 10.18580 03 35 27.88 +17 38 06.3 22.4 V G96 – Mt. Lemmon Survey MPS 237546
2009 03 21.38484 14 35 17.40 -14 35 38.6   691 – Steward Observatory, Kitt Peak-Spacewatch MPS 281288
2009 03 21.40253 14 35 17.07 -14 35 36.1   691 – Steward Observatory, Kitt Peak-Spacewatch MPS 281288
2009 03 21.42017 14 35 16.66 -14 35 33.8   691 – Steward Observatory, Kitt Peak-Spacewatch MPS 281288
2009 04 01.45659 14 30 03.38 -14 00 37.3   291 – LPL/Spacewatch II MPS 282555
2009 04 01.48010 14 30 02.47 -14 00 31.7   291 – LPL/Spacewatch II MPS 282555
2009 04 01.50787 14 30 01.40 -14 00 25.0   291 – LPL/Spacewatch II MPS 282555
2009 04 20.35428 14 15 12.99 -12 30 39.8 19.4 V G96 – Mt. Lemmon Survey MPS 284352
2009 04 20.36115 14 15 12.67 -12 30 38.2 19.5 V G96 – Mt. Lemmon Survey MPS 284352
2009 04 20.36809 14 15 12.20 -12 30 36.0 19.6 V G96 – Mt. Lemmon Survey MPS 284352
2009 04 20.37498 14 15 11.84 -12 30 33.8 19.9 V G96 – Mt. Lemmon Survey MPS 284352
2009 04 27.29879 14 08 59.82 -11 53 30.2 19.2 V G96 – Mt. Lemmon Survey MPS 285681
2009 04 27.30602 14 08 59.42 -11 53 28.1 19.6 V G96 – Mt. Lemmon Survey MPS 285681
2009 04 27.31317 14 08 58.99 -11 53 26.5 19.4 V G96 – Mt. Lemmon Survey MPS 285681
2009 04 27.32032 14 08 58.63 -11 53 23.5 19.6 V G96 – Mt. Lemmon Survey MPS 285681
2009 04 27.38887 14 08 54.81 -11 53 01.2 19.6 V G96 – Mt. Lemmon Survey MPS 285681
2009 04 27.39049 14 08 54.70 -11 53 00.7 19.7 V G96 – Mt. Lemmon Survey MPS 285681
2009 04 27.39210 14 08 54.63 -11 53 00.2 19.7 V G96 – Mt. Lemmon Survey MPS 285681
2009 04 27.39371 14 08 54.56 -11 52 59.6 19.8 V G96 – Mt. Lemmon Survey MPS 285681
2009 05 25.21184 13 49 41.66 -09 57 13.8 20.8 V G96 – Mt. Lemmon Survey MPS 287923
2009 05 25.22214 13 49 41.44 -09 57 12.7 20.7 V G96 – Mt. Lemmon Survey MPS 287923
2009 05 25.23251 13 49 41.16 -09 57 11.3 20.6 V G96 – Mt. Lemmon Survey MPS 287923
2009 05 25.24287 13 49 40.90 -09 57 09.6 20.5 V G96 – Mt. Lemmon Survey MPS 287923
2010 09 05.17920 20 45 46.76 -16 16 01.7 21.4 V G96 – Mt. Lemmon Survey MPS 347821
2010 09 05.18609 20 45 46.51 -16 16 02.4 21.1 V G96 – Mt. Lemmon Survey MPS 347821
2010 09 05.19304 20 45 46.29 -16 16 04.2 21.4 V G96 – Mt. Lemmon Survey MPS 347821
2010 09 05.19999 20 45 46.04 -16 16 05.2 21.4 V G96 – Mt. Lemmon Survey MPS 347821
2011 10 23.29209 03 14 27.82 +16 42 45.8 20.6 V 691 – Steward Observatory, Kitt Peak-Spacewatch MPS 397932
